START_TIME,STEP,MOV.,M15,t_acc.,M20,t_acc.
1979-07-21 09:00:43.610 ,0,0,0.,24.0,0.,24.0
1979-07-21 09:01:07.610 ,0,1,0.,24.0,0.,24.0
1979-07-21 09:01:31.610 ,0,0,0.,24.0,0.,24.0
1979-07-21 09:01:55.610 ,1,1,0.,24.0,0.,24.0
1979-07-21 09:02:19.610 ,1,0,0.,24.0,0.,24.0
1979-07-21 09:02:43.610 ,0,0,0.,24.0,0.,24.0
1979-07-21 09:03:07.610 ,0,0,0.,24.0,0.,24.0
1979-07-21 09:03:31.610 ,3,1,0.,24.0,0.,24.0
1979-07-21 09:03:55.610 ,3,0,0.,24.0,0.,24.0
1979-07-21 09:04:19.610 ,4,1,0.,24.0,0.,24.0
1979-07-21 09:04:43.610 ,4,0,0.,24.0,0.,24.0
1979-07-21 09:05:07.610 ,5,1,0.,24.0,0.,24.0
1979-07-21 09:05:31.610 ,5,0,0.,24.0,0.,24.0
1979-07-21 09:05:55.610 ,6,1,0.,24.0,0.,24.0
1979-07-21 09:06:19.610 ,6,0,0.,24.0,0.,24.0
1979-07-21 09:06:43.610 ,7,0,0.,24.0,0.,24.0
1979-07-21 09:07:07.610 ,7,0,0.,24.0,0.,24.0
1979-07-21 09:07:31.610 ,3,1,0.,24.0,0.,24.0
1979-07-21 09:07:55.610 ,0,1,0.,24.0,0.,24.0
1979-07-21 09:08:19.610 ,4,1,0.,24.0,0.,24.0
1979-07-21 09:08:43.610 ,7,1,0.,24.0,0.,24.0
1979-07-21 09:09:07.610 ,3,1,0.,24.0,0.,24.0
1979-07-21 09:09:31.610 ,0,1,0.,24.0,0.,24.0
1979-07-21 09:09:55.610 ,4,1,0.,24.0,0.,24.0
1979-07-21 09:10:19.610 ,7,1,0.,24.0,0.,24.0
1979-07-21 09:10:43.610 ,3,1,0.,24.0,0.,24.0
1979-07-21 09:11:07.610 ,0,1,0.,24.0,0.,24.0
1979-07-21 09:11:31.610 ,4,1,0.,24.0,0.,24.0
1979-07-21 09:11:55.610 ,7,1,0.,24.0,0.,24.0
1979-07-21 09:12:19.610 ,3,1,0.,24.0,0.,24.0
1979-07-21 09:12:43.610 ,0,1,0.,24.0,0.,24.0
1979-07-21 09:13:07.610 ,4,1,0.,24.0,0.,24.0
1979-07-21 09:13:31.610 ,7,1,0.,24.0,0.,24.0
1979-07-21 09:13:55.610 ,3,1,0.,24.0,0.,24.0
1979-07-21 09:14:19.610 ,0,1,0.,24.0,0.,24.0
1979-07-21 09:14:43.610 ,4,1,0.,24.0,0.,24.0
1979-07-21 09:15:07.610 ,7,1,0.,24.0,0.,24.0
1979-07-21 09:15:31.610 ,3,1,0.,24.0,0.,24.0
1979-07-21 09:15:55.610 ,0,1,0.,24.0,0.,24.0
1979-07-21 09:16:19.610 ,4,1,0.,24.0,0.,24.0
1979-07-21 09:16:43.610 ,7,1,0.,24.0,0.,24.0
1979-07-21 09:17:07.610 ,3,1,0.,24.0,0.,24.0
1979-07-21 09:17:31.610 ,0,1,0.,24.0,0.,24.0
1979-07-21 09:17:55.610 ,0,0,0.,24.0,0.,24.0
1979-07-21 09:18:19.610 ,0,0,0.,24.0,0.,24.0
1979-07-21 09:18:43.610 ,5,1,0.,24.0,0.,24.0
1979-07-21 09:19:07.610 ,5,0,0.,24.0,0.,24.0
1979-07-21 09:19:31.610 ,4,1,0.,24.0,0.,24.0
1979-07-21 09:19:55.610 ,4,0,0.,24.0,0.,24.0
1979-07-21 09:20:19.610 ,3,1,0.,24.0,0.,24.0
1979-07-21 09:20:43.610 ,3,0,0.,24.0,0.,24.0
1979-07-21 09:21:07.610 ,2,1,0.,24.0,0.,24.0
1979-07-21 09:21:31.610 ,2,0,0.,24.0,0.,24.0
1979-07-21 09:21:55.610 ,1,1,0.,24.0,0.,24.0
1979-07-21 09:22:19.610 ,1,0,0.,24.0,0.,24.0
1979-07-21 09:22:43.610 ,0,1,0.,24.0,0.,24.0
1979-07-21 09:23:07.610 ,0,0,0.,24.0,0.,24.0
1979-07-21 09:23:31.610 ,0,1,0.,24.0,0.,24.0
1979-07-21 09:23:55.610 ,0,0,0.,24.0,0.,24.0
1979-07-21 09:24:19.610 ,1,1,0.,24.0,0.,24.0
1979-07-21 09:24:43.610 ,1,0,0.,24.0,0.,24.0
1979-07-21 09:25:07.610 ,2,1,0.,24.0,0.,24.0
1979-07-21 09:25:31.610 ,2,0,0.,24.0,0.,24.0
1979-07-21 09:25:55.610 ,3,1,0.,24.0,0.,24.0
1979-07-21 09:26:19.610 ,3,0,0.,24.0,0.,24.0
1979-07-21 09:26:43.610 ,4,1,0.,24.0,0.,24.0
1979-07-21 09:27:07.610 ,4,0,0.,24.0,0.,24.0
1979-07-21 09:27:31.610 ,5,1,0.,24.0,0.,24.0
1979-07-21 09:27:55.610 ,5,0,0.,24.0,0.,24.0
1979-07-21 09:28:19.610 ,6,1,0.,24.0,0.,24.0
1979-07-21 09:28:43.610 ,6,0,0.,24.0,0.,24.0
1979-07-21 09:29:07.610 ,7,1,0.,24.0,0.,24.0
1979-07-21 09:29:31.610 ,7,0,0.,24.0,0.,24.0
1979-07-21 09:29:55.610 ,7,1,0.,24.0,0.,24.0
1979-07-21 09:30:19.610 ,7,0,0.,24.0,0.,24.0
1979-07-21 09:30:43.610 ,6,1,0.,24.0,0.,24.0
1979-07-21 09:31:07.610 ,6,0,0.,24.0,0.,24.0
1979-07-21 09:31:31.610 ,5,1,0.,24.0,0.,24.0
1979-07-21 09:31:55.610 ,5,0,0.,24.0,0.,24.0
1979-07-21 09:32:19.610 ,4,1,0.,24.0,0.,24.0
1979-07-21 09:32:43.610 ,4,0,0.,24.0,0.,24.0
1979-07-21 09:33:07.610 ,3,1,0.,24.0,0.,24.0
1979-07-21 09:33:31.610 ,3,0,0.,24.0,0.,24.0
1979-07-21 09:33:55.610 ,2,1,0.,24.0,0.,24.0
1979-07-21 09:34:19.610 ,2,0,0.,24.0,0.,24.0
1979-07-21 09:34:43.610 ,1,1,0.,24.0,0.,24.0
1979-07-21 09:35:07.610 ,1,0,0.,24.0,0.,24.0
1979-07-21 09:35:31.610 ,0,1,0.,24.0,0.,24.0
1979-07-21 09:35:55.610 ,0,0,0.,24.0,0.,24.0
1979-07-21 09:36:19.610 ,0,1,0.,24.0,0.,24.0
1979-07-21 09:36:43.610 ,0,0,0.,24.0,0.,24.0
1979-07-21 09:37:07.610 ,1,1,0.,24.0,0.,24.0
1979-07-21 09:37:31.610 ,1,0,0.,24.0,0.,24.0
1979-07-21 09:37:55.610 ,2,1,0.,24.0,0.,24.0
1979-07-21 09:38:19.610 ,2,0,0.,24.0,0.,24.0
1979-07-21 09:38:43.610 ,3,1,0.,24.0,0.,24.0
1979-07-21 09:39:07.610 ,3,0,0.,24.0,0.,24.0
1979-07-21 09:39:31.610 ,4,1,1.,24.0,0.,24.0
1979-07-21 09:39:55.610 ,4,0,0.,24.0,0.,24.0
1979-07-21 09:40:19.610 ,5,1,0.,24.0,0.,24.0
1979-07-21 09:40:43.610 ,5,0,0.,24.0,0.,24.0
1979-07-21 09:41:07.610 ,6,1,0.,24.0,0.,24.0
1979-07-21 09:41:31.610 ,6,0,0.,24.0,0.,24.0
1979-07-21 09:41:55.610 ,7,1,0.,24.0,0.,24.0
1979-07-21 09:42:19.610 ,7,0,0.,24.0,0.,24.0
1979-07-21 09:42:43.610 ,7,1,0.,24.0,0.,24.0
1979-07-21 09:43:07.610 ,7,0,0.,24.0,0.,24.0
1979-07-21 09:43:31.610 ,6,1,0.,24.0,0.,24.0
1979-07-21 09:43:55.610 ,6,0,0.,24.0,0.,24.0
1979-07-21 09:44:19.610 ,5,1,0.,24.0,0.,24.0
1979-07-21 09:44:43.610 ,5,0,0.,24.0,0.,24.0
1979-07-21 09:45:07.610 ,4,1,0.,24.0,0.,24.0
1979-07-21 09:45:31.610 ,4,0,0.,24.0,0.,24.0
1979-07-21 09:45:55.610 ,3,1,0.,24.0,0.,24.0
1979-07-21 09:46:19.610 ,3,0,0.,24.0,0.,24.0
1979-07-21 09:46:43.610 ,2,1,0.,24.0,0.,24.0
1979-07-21 09:47:07.610 ,2,0,0.,24.0,0.,24.0
1979-07-21 09:47:31.610 ,1,1,0.,24.0,0.,24.0
1979-07-21 09:47:55.610 ,1,0,0.,24.0,0.,24.0
1979-07-21 09:48:19.610 ,0,1,0.,24.0,0.,24.0
1979-07-21 09:48:43.610 ,0,0,0.,24.0,0.,24.0
1979-07-21 09:49:07.610 ,0,1,0.,24.0,0.,24.0
1979-07-21 09:49:31.610 ,0,0,0.,24.0,0.,24.0
1979-07-21 09:49:55.610 ,1,1,0.,24.0,0.,24.0
1979-07-21 09:50:19.610 ,1,0,0.,24.0,0.,24.0
1979-07-21 09:50:43.610 ,2,1,0.,24.0,0.,24.0
1979-07-21 09:51:07.610 ,2,0,0.,24.0,0.,24.0
1979-07-21 09:51:31.610 ,3,1,0.,24.0,0.,24.0
1979-07-21 09:51:55.610 ,3,0,0.,24.0,0.,24.0
1979-07-21 09:52:19.610 ,4,1,0.,24.0,0.,24.0
1979-07-21 09:52:43.610 ,4,0,0.,24.0,0.,24.0
1979-07-21 09:53:07.610 ,5,1,0.,24.0,0.,24.0
1979-07-21 09:53:31.610 ,5,0,0.,24.0,0.,24.0
1979-07-21 09:53:55.610 ,6,1,0.,24.0,0.,24.0
1979-07-21 09:54:19.610 ,6,0,0.,24.0,0.,24.0
1979-07-21 09:54:43.610 ,7,0,0.,24.0,0.,24.0
1979-07-21 09:55:07.610 ,7,0,0.,24.0,0.,24.0
1979-07-21 09:55:31.610 ,3,1,0.,24.0,0.,24.0
1979-07-21 09:55:55.610 ,0,1,0.,24.0,0.,24.0
1979-07-21 09:56:19.610 ,4,1,0.,24.0,0.,24.0
1979-07-21 09:56:43.610 ,7,1,0.,24.0,0.,24.0
1979-07-21 09:57:07.610 ,3,1,0.,24.0,0.,24.0
1979-07-21 09:57:31.610 ,0,1,0.,24.0,0.,24.0
1979-07-21 09:57:55.610 ,4,1,0.,24.0,0.,24.0
1979-07-21 09:58:19.610 ,7,1,0.,24.0,0.,24.0
1979-07-21 09:58:43.610 ,3,1,0.,24.0,0.,24.0
1979-07-21 09:59:07.610 ,0,1,0.,24.0,0.,24.0
1979-07-21 09:59:31.610 ,4,1,0.,24.0,0.,24.0
1979-07-21 09:59:55.610 ,7,1,0.,24.0,0.,24.0
1979-07-21 10:00:19.610 ,3,1,0.,24.0,0.,24.0
1979-07-21 10:00:43.610 ,0,1,0.,24.0,0.,24.0
1979-07-21 10:01:07.610 ,4,1,0.,24.0,0.,24.0
1979-07-21 10:01:31.610 ,7,1,0.,24.0,0.,24.0
1979-07-21 10:01:55.610 ,3,1,0.,24.0,0.,24.0
1979-07-21 10:02:19.610 ,0,1,0.,24.0,0.,24.0
1979-07-21 10:02:43.610 ,4,1,0.,24.0,0.,24.0
1979-07-21 10:03:07.610 ,7,1,0.,24.0,0.,24.0
1979-07-21 10:03:31.610 ,3,1,0.,24.0,0.,24.0
1979-07-21 10:03:55.610 ,0,1,0.,24.0,0.,24.0
1979-07-21 10:04:19.610 ,4,1,0.,24.0,0.,24.0
1979-07-21 10:04:43.610 ,7,1,0.,24.0,0.,24.0
1979-07-21 10:05:07.610 ,3,1,0.,24.0,0.,24.0
1979-07-21 10:05:31.610 ,0,1,0.,24.0,0.,24.0
1979-07-21 10:05:55.610 ,0,0,0.,24.0,0.,24.0
1979-07-21 10:06:19.610 ,0,0,0.,24.0,0.,24.0
1979-07-21 10:06:43.610 ,5,1,0.,24.0,0.,24.0
1979-07-21 10:07:07.610 ,5,0,0.,24.0,0.,24.0
1979-07-21 10:07:31.610 ,4,1,0.,24.0,0.,24.0
1979-07-21 10:07:55.610 ,4,0,0.,24.0,0.,24.0
1979-07-21 10:08:19.610 ,3,1,0.,24.0,0.,24.0
1979-07-21 10:08:43.610 ,3,0,0.,24.0,0.,24.0
1979-07-21 10:09:07.610 ,2,1,0.,24.0,0.,24.0
1979-07-21 10:09:31.610 ,2,0,0.,24.0,0.,24.0
1979-07-21 10:09:55.610 ,1,1,0.,24.0,0.,24.0
1979-07-21 10:10:19.610 ,1,0,0.,24.0,0.,24.0
1979-07-21 10:10:43.610 ,0,1,0.,24.0,0.,24.0
1979-07-21 10:11:07.610 ,0,0,0.,24.0,0.,24.0
1979-07-21 10:11:31.610 ,0,1,0.,24.0,0.,24.0
1979-07-21 10:11:55.610 ,0,0,0.,24.0,0.,24.0
1979-07-21 10:12:19.610 ,1,1,0.,24.0,0.,24.0
1979-07-21 10:12:43.610 ,1,0,0.,24.0,0.,24.0
1979-07-21 10:13:07.610 ,2,1,0.,24.0,0.,24.0
1979-07-21 10:13:31.610 ,2,0,0.,24.0,0.,24.0
1979-07-21 10:13:55.610 ,3,1,0.,24.0,0.,24.0
1979-07-21 10:14:19.610 ,3,0,0.,24.0,0.,24.0
1979-07-21 10:14:43.610 ,4,1,0.,24.0,0.,24.0
1979-07-21 10:15:07.610 ,4,0,0.,24.0,0.,24.0
1979-07-21 10:15:31.610 ,5,1,0.,24.0,0.,24.0
1979-07-21 10:15:55.610 ,5,0,0.,24.0,0.,24.0
1979-07-21 10:16:19.610 ,6,1,0.,24.0,0.,24.0
1979-07-21 10:16:43.610 ,6,0,0.,24.0,0.,24.0
1979-07-21 10:17:07.610 ,7,1,0.,24.0,0.,24.0
1979-07-21 10:17:31.610 ,7,0,0.,24.0,0.,24.0
1979-07-21 10:17:55.610 ,7,1,0.,24.0,0.,24.0
1979-07-21 10:18:19.610 ,7,0,0.,24.0,0.,24.0
1979-07-21 10:18:43.610 ,6,1,0.,24.0,0.,24.0
1979-07-21 10:19:07.610 ,6,0,0.,24.0,0.,24.0
1979-07-21 10:19:31.610 ,5,1,0.,24.0,0.,24.0
1979-07-21 10:19:55.610 ,5,0,0.,24.0,0.,24.0
1979-07-21 10:20:19.610 ,4,1,0.,24.0,0.,24.0
1979-07-21 10:20:43.610 ,4,0,0.,24.0,0.,24.0
1979-07-21 10:21:07.610 ,3,1,0.,24.0,0.,24.0
1979-07-21 10:21:31.610 ,3,0,0.,24.0,0.,24.0
1979-07-21 10:21:55.610 ,2,1,0.,24.0,0.,24.0
1979-07-21 10:22:19.610 ,2,0,0.,24.0,0.,24.0
1979-07-21 10:22:43.610 ,1,1,0.,24.0,0.,24.0
1979-07-21 10:23:07.610 ,1,0,0.,24.0,0.,24.0
1979-07-21 10:23:31.610 ,0,1,0.,24.0,0.,24.0
1979-07-21 10:23:55.610 ,0,0,0.,24.0,0.,24.0
1979-07-21 10:24:19.610 ,0,1,0.,24.0,0.,24.0
1979-07-21 10:24:43.610 ,0,0,0.,24.0,0.,24.0
1979-07-21 10:25:07.610 ,1,1,0.,24.0,0.,24.0
1979-07-21 10:25:31.610 ,1,0,0.,24.0,0.,24.0
1979-07-21 10:25:55.610 ,2,1,0.,24.0,0.,24.0
1979-07-21 10:26:19.610 ,2,0,0.,24.0,0.,24.0
1979-07-21 10:26:43.610 ,3,1,0.,24.0,0.,24.0
1979-07-21 10:27:07.610 ,3,0,0.,24.0,0.,24.0
1979-07-21 10:27:31.610 ,4,1,0.,24.0,0.,24.0
1979-07-21 10:27:55.610 ,4,0,0.,24.0,0.,24.0
1979-07-21 10:28:19.610 ,5,1,0.,24.0,0.,24.0
1979-07-21 10:28:43.610 ,5,0,0.,24.0,0.,24.0
1979-07-21 10:29:07.610 ,6,1,0.,24.0,0.,24.0
1979-07-21 10:29:31.610 ,6,0,0.,24.0,0.,24.0
1979-07-21 10:29:55.610 ,7,1,0.,24.0,0.,24.0
1979-07-21 10:30:19.610 ,7,0,0.,24.0,0.,24.0
1979-07-21 10:30:43.610 ,7,1,0.,24.0,0.,24.0
1979-07-21 10:31:07.610 ,7,0,0.,24.0,0.,24.0
1979-07-21 10:31:31.610 ,6,1,0.,24.0,0.,24.0
1979-07-21 10:31:55.610 ,6,0,0.,24.0,0.,24.0
1979-07-21 10:32:19.610 ,5,1,0.,24.0,0.,24.0
1979-07-21 10:32:43.610 ,5,0,0.,24.0,0.,24.0
1979-07-21 10:33:07.610 ,4,1,0.,24.0,0.,24.0
1979-07-21 10:33:31.610 ,4,0,0.,24.0,0.,24.0
1979-07-21 10:33:55.610 ,3,1,0.,24.0,0.,24.0
1979-07-21 10:34:19.610 ,3,0,0.,24.0,0.,24.0
1979-07-21 10:34:43.610 ,2,1,0.,24.0,0.,24.0
1979-07-21 10:35:07.610 ,2,0,0.,24.0,0.,24.0
1979-07-21 10:35:31.610 ,1,1,0.,24.0,0.,24.0
1979-07-21 10:35:55.610 ,1,0,0.,24.0,0.,24.0
1979-07-21 10:36:19.610 ,0,0,,0,,0
1979-07-21 10:36:43.610 ,0,0,0.,24.0,0.,24.0
1979-07-21 10:37:07.610 ,0,1,0.,24.0,0.,24.0
1979-07-21 10:37:31.610 ,0,0,0.,24.0,0.,24.0
1979-07-21 10:37:55.610 ,1,1,0.,24.0,0.,24.0
1979-07-21 10:38:19.610 ,1,0,0.,24.0,0.,24.0
1979-07-21 10:38:43.610 ,2,1,0.,24.0,0.,24.0
1979-07-21 10:39:07.610 ,2,0,0.,24.0,0.,24.0
1979-07-21 10:39:31.610 ,3,1,0.,24.0,0.,24.0
1979-07-21 10:39:55.610 ,3,0,0.,24.0,0.,24.0
1979-07-21 10:40:19.610 ,4,1,0.,24.0,0.,24.0
1979-07-21 10:40:43.610 ,4,0,0.,24.0,0.,24.0
1979-07-21 10:41:07.610 ,5,1,0.,24.0,0.,24.0
1979-07-21 10:41:31.610 ,5,0,0.,24.0,0.,24.0
1979-07-21 10:41:55.610 ,6,1,0.,24.0,0.,24.0
1979-07-21 10:42:19.610 ,6,0,0.,24.0,0.,24.0
1979-07-21 10:42:43.610 ,7,0,0.,24.0,0.,24.0
1979-07-21 10:43:07.610 ,7,0,0.,24.0,0.,24.0
1979-07-21 10:43:31.610 ,3,1,0.,24.0,0.,24.0
1979-07-21 10:43:55.610 ,0,1,0.,24.0,0.,24.0
1979-07-21 10:44:19.610 ,4,1,0.,24.0,0.,24.0
1979-07-21 10:44:43.610 ,7,1,0.,24.0,0.,24.0
1979-07-21 10:45:07.610 ,3,1,0.,24.0,0.,24.0
1979-07-21 10:45:31.610 ,0,1,0.,24.0,0.,24.0
1979-07-21 10:45:55.610 ,4,1,0.,24.0,0.,24.0
1979-07-21 10:46:19.610 ,7,1,0.,24.0,0.,24.0
1979-07-21 10:46:43.610 ,3,1,0.,24.0,0.,24.0
1979-07-21 10:47:07.610 ,0,1,0.,24.0,0.,24.0
1979-07-21 10:47:31.600 ,4,1,0.,24.0,0.,24.0
1979-07-21 10:47:55.600 ,7,1,0.,24.0,0.,24.0
1979-07-21 10:48:19.600 ,3,1,0.,24.0,0.,24.0
1979-07-21 10:48:43.600 ,0,1,0.,24.0,0.,24.0
1979-07-21 10:49:07.600 ,4,1,0.,24.0,0.,24.0
1979-07-21 10:49:31.600 ,7,1,0.,24.0,0.,24.0
1979-07-21 10:49:55.600 ,3,1,0.,24.0,0.,24.0
1979-07-21 10:50:19.600 ,0,1,0.,24.0,0.,24.0
1979-07-21 10:50:43.600 ,4,1,0.,24.0,0.,24.0
1979-07-21 10:51:07.600 ,7,1,0.,24.0,0.,24.0
1979-07-21 10:51:31.600 ,3,1,0.,24.0,0.,24.0
1979-07-21 10:51:55.600 ,0,1,0.,24.0,0.,24.0
1979-07-21 10:52:19.600 ,4,1,0.,24.0,0.,24.0
1979-07-21 10:52:43.600 ,7,1,0.,24.0,0.,24.0
1979-07-21 10:53:07.600 ,3,1,0.,24.0,0.,24.0
1979-07-21 10:53:31.600 ,0,1,0.,24.0,0.,24.0
1979-07-21 10:53:55.600 ,0,0,0.,24.0,0.,24.0
1979-07-21 10:54:19.600 ,0,0,0.,24.0,0.,24.0
1979-07-21 10:54:43.600 ,5,1,0.,24.0,0.,24.0
1979-07-21 10:55:07.600 ,5,0,0.,24.0,0.,24.0
1979-07-21 10:55:31.600 ,4,1,0.,24.0,0.,24.0
1979-07-21 10:55:55.600 ,4,0,0.,24.0,0.,24.0
1979-07-21 10:56:19.600 ,3,1,0.,24.0,0.,24.0
1979-07-21 10:56:43.600 ,3,0,0.,24.0,0.,24.0
1979-07-21 10:57:07.600 ,2,1,0.,24.0,0.,24.0
1979-07-21 10:57:31.600 ,2,0,0.,24.0,0.,24.0
1979-07-21 10:57:55.600 ,1,1,0.,24.0,0.,24.0
1979-07-21 10:58:19.600 ,1,0,0.,24.0,0.,24.0
1979-07-21 10:58:43.600 ,0,1,0.,24.0,0.,24.0
1979-07-21 10:59:07.600 ,0,0,0.,24.0,0.,24.0
1979-07-21 10:59:31.600 ,0,1,0.,24.0,0.,24.0
1979-07-21 10:59:55.600 ,0,0,0.,24.0,0.,24.0
1979-07-21 11:00:19.610 ,1,1,0.,24.0,0.,24.0
1979-07-21 11:00:43.610 ,1,0,0.,24.0,0.,24.0
1979-07-21 11:01:07.610 ,2,1,0.,24.0,0.,24.0
1979-07-21 11:01:31.610 ,2,0,0.,24.0,0.,24.0
1979-07-21 11:01:55.610 ,3,1,0.,24.0,0.,24.0
1979-07-21 11:02:19.610 ,3,0,0.,24.0,0.,24.0
1979-07-21 11:02:43.610 ,4,1,0.,24.0,0.,24.0
1979-07-21 11:03:07.610 ,4,0,0.,24.0,0.,24.0
1979-07-21 11:03:31.610 ,5,1,0.,24.0,0.,24.0
1979-07-21 11:03:55.610 ,5,0,0.,24.0,0.,24.0
1979-07-21 11:04:19.610 ,6,1,0.,24.0,0.,24.0
1979-07-21 11:04:43.610 ,6,0,0.,24.0,0.,24.0
1979-07-21 11:05:07.600 ,7,1,0.,24.0,0.,24.0
1979-07-21 11:05:31.610 ,7,0,0.,24.0,0.,24.0
1979-07-21 11:05:55.610 ,7,1,0.,24.0,0.,24.0
1979-07-21 11:06:19.600 ,7,0,0.,24.0,0.,24.0
1979-07-21 11:06:43.610 ,6,1,0.,24.0,0.,24.0
1979-07-21 11:07:07.600 ,6,0,0.,24.0,0.,24.0
1979-07-21 11:07:31.600 ,5,1,0.,24.0,0.,24.0
1979-07-21 11:07:55.600 ,5,0,0.,24.0,0.,24.0
1979-07-21 11:08:19.600 ,4,1,0.,24.0,0.,24.0
1979-07-21 11:08:43.600 ,4,0,0.,24.0,0.,24.0
1979-07-21 11:09:07.600 ,3,1,0.,24.0,0.,24.0
1979-07-21 11:09:31.600 ,3,0,0.,24.0,0.,24.0
1979-07-21 11:09:55.600 ,2,1,0.,24.0,0.,24.0
1979-07-21 11:10:19.600 ,2,0,0.,24.0,0.,24.0
1979-07-21 11:10:43.600 ,1,1,0.,24.0,0.,24.0
1979-07-21 11:11:07.600 ,1,0,0.,24.0,0.,24.0
1979-07-21 11:11:31.600 ,0,1,0.,24.0,0.,24.0
1979-07-21 11:11:55.600 ,0,0,0.,24.0,0.,24.0
1979-07-21 11:12:19.600 ,0,1,0.,24.0,0.,24.0
1979-07-21 11:12:43.600 ,0,0,0.,24.0,0.,24.0
1979-07-21 11:13:07.600 ,1,1,0.,24.0,0.,24.0
1979-07-21 11:13:31.600 ,1,0,0.,24.0,0.,24.0
1979-07-21 11:13:55.600 ,2,1,0.,24.0,0.,24.0
1979-07-21 11:14:19.600 ,2,0,0.,24.0,0.,24.0
1979-07-21 11:14:43.600 ,3,1,0.,24.0,0.,24.0
1979-07-21 11:15:07.600 ,3,0,0.,24.0,0.,24.0
1979-07-21 11:15:31.600 ,4,1,0.,24.0,0.,24.0
1979-07-21 11:15:55.600 ,4,0,0.,24.0,0.,24.0
1979-07-21 11:16:19.600 ,5,1,0.,24.0,0.,24.0
1979-07-21 11:16:43.600 ,5,0,0.,24.0,0.,24.0
1979-07-21 11:17:07.600 ,6,1,0.,24.0,0.,24.0
1979-07-21 11:17:31.600 ,6,0,0.,24.0,0.,24.0
1979-07-21 11:17:55.600 ,7,1,0.,24.0,0.,24.0
1979-07-21 11:18:19.600 ,7,0,0.,24.0,0.,24.0
1979-07-21 11:18:43.600 ,7,1,0.,24.0,0.,24.0
1979-07-21 11:19:07.600 ,7,0,0.,24.0,0.,24.0
1979-07-21 11:19:31.600 ,6,1,0.,24.0,0.,24.0
1979-07-21 11:19:55.600 ,6,0,0.,24.0,0.,24.0
1979-07-21 11:20:19.600 ,5,1,0.,24.0,0.,24.0
1979-07-21 11:20:43.600 ,5,0,0.,24.0,0.,24.0
1979-07-21 11:21:07.600 ,4,1,0.,24.0,0.,24.0
1979-07-21 11:21:31.600 ,4,0,0.,24.0,0.,24.0
1979-07-21 11:21:55.600 ,3,1,0.,24.0,0.,24.0
1979-07-21 11:22:19.600 ,3,0,0.,24.0,0.,24.0
1979-07-21 11:22:43.600 ,2,1,0.,24.0,0.,24.0
1979-07-21 11:23:07.600 ,2,0,0.,24.0,0.,24.0
1979-07-21 11:23:31.600 ,1,1,0.,24.0,0.,24.0
1979-07-21 11:23:55.600 ,1,0,0.,24.0,0.,24.0
1979-07-21 11:24:19.600 ,0,1,0.,24.0,0.,24.0
1979-07-21 11:24:43.600 ,0,0,0.,24.0,0.,24.0
1979-07-21 11:25:07.600 ,0,1,0.,24.0,0.,24.0
1979-07-21 11:25:31.600 ,0,0,0.,24.0,0.,24.0
1979-07-21 11:25:55.600 ,1,1,0.,24.0,0.,24.0
1979-07-21 11:26:19.600 ,1,0,0.,24.0,0.,24.0
1979-07-21 11:26:43.600 ,2,1,0.,24.0,0.,24.0
1979-07-21 11:27:07.600 ,2,0,0.,24.0,0.,24.0
1979-07-21 11:27:31.600 ,3,1,0.,24.0,0.,24.0
1979-07-21 11:27:55.600 ,3,0,0.,24.0,0.,24.0
1979-07-21 11:28:19.600 ,4,1,0.,24.0,0.,24.0
1979-07-21 11:28:43.600 ,4,0,0.,24.0,0.,24.0
1979-07-21 11:29:07.600 ,5,1,0.,24.0,0.,24.0
1979-07-21 11:29:31.600 ,5,0,0.,24.0,0.,24.0
1979-07-21 11:29:55.600 ,6,1,0.,24.0,0.,24.0
1979-07-21 11:30:19.600 ,6,0,0.,24.0,0.,24.0
1979-07-21 11:30:43.600 ,7,0,0.,24.0,0.,24.0
1979-07-21 11:31:07.600 ,7,0,0.,24.0,0.,24.0
1979-07-21 11:31:31.600 ,3,1,0.,24.0,0.,24.0
1979-07-21 11:31:55.600 ,0,1,0.,24.0,0.,24.0
1979-07-21 11:32:19.600 ,4,1,0.,24.0,0.,24.0
1979-07-21 11:32:43.600 ,7,1,0.,24.0,0.,24.0
1979-07-21 11:33:07.600 ,3,1,0.,24.0,0.,24.0
1979-07-21 11:33:31.600 ,0,1,0.,24.0,0.,24.0
1979-07-21 11:33:55.600 ,4,1,0.,24.0,0.,24.0
1979-07-21 11:34:19.600 ,7,1,0.,24.0,0.,24.0
1979-07-21 11:34:43.600 ,3,1,0.,24.0,0.,24.0
1979-07-21 11:35:07.600 ,0,1,0.,24.0,0.,24.0
1979-07-21 11:35:31.600 ,4,1,0.,24.0,0.,24.0
1979-07-21 11:35:55.600 ,7,1,0.,24.0,0.,24.0
1979-07-21 11:36:19.600 ,3,1,0.,24.0,0.,24.0
1979-07-21 11:36:43.600 ,0,1,0.,24.0,0.,24.0
1979-07-21 11:37:07.600 ,4,1,0.,24.0,0.,24.0
1979-07-21 11:37:31.600 ,7,1,0.,24.0,0.,24.0
1979-07-21 11:37:55.600 ,3,1,0.,24.0,0.,24.0
1979-07-21 11:38:19.600 ,0,1,0.,24.0,0.,24.0
1979-07-21 11:38:43.600 ,4,1,0.,24.0,0.,24.0
1979-07-21 11:39:07.600 ,7,1,0.,24.0,0.,24.0
1979-07-21 11:39:31.600 ,3,1,0.,24.0,0.,24.0
1979-07-21 11:39:55.600 ,0,1,0.,24.0,0.,24.0
1979-07-21 11:40:19.600 ,4,1,0.,24.0,0.,24.0
1979-07-21 11:40:43.600 ,7,1,0.,24.0,0.,24.0
1979-07-21 11:41:07.600 ,3,1,0.,24.0,0.,24.0
1979-07-21 11:41:31.600 ,0,1,0.,24.0,0.,24.0
1979-07-21 11:41:55.600 ,0,0,0.,24.0,0.,24.0
1979-07-21 11:42:19.600 ,0,0,0.,24.0,0.,24.0
1979-07-21 11:42:43.600 ,5,1,0.,24.0,0.,24.0
1979-07-21 11:43:07.600 ,5,0,0.,24.0,0.,24.0
1979-07-21 11:43:31.600 ,4,1,0.,24.0,0.,24.0
1979-07-21 11:43:55.600 ,4,0,0.,24.0,0.,24.0
1979-07-21 11:44:19.600 ,3,1,0.,24.0,0.,24.0
1979-07-21 11:44:43.600 ,3,0,0.,24.0,0.,24.0
1979-07-21 11:45:07.600 ,2,1,0.,24.0,0.,24.0
1979-07-21 11:45:31.600 ,2,0,0.,24.0,0.,24.0
1979-07-21 11:45:55.600 ,1,1,0.,24.0,0.,24.0
1979-07-21 11:46:19.600 ,1,0,0.,24.0,0.,24.0
1979-07-21 11:46:43.600 ,0,1,0.,24.0,0.,24.0
1979-07-21 11:47:07.600 ,0,0,0.,24.0,0.,24.0
1979-07-21 11:47:31.600 ,0,1,0.,24.0,0.,24.0
1979-07-21 11:47:55.600 ,0,0,0.,24.0,0.,24.0
1979-07-21 11:48:19.600 ,1,1,0.,24.0,0.,24.0
1979-07-21 11:48:43.600 ,1,0,0.,24.0,0.,24.0
1979-07-21 11:49:07.600 ,2,1,0.,24.0,0.,24.0
1979-07-21 11:49:31.600 ,2,0,0.,24.0,0.,24.0
1979-07-21 11:49:55.600 ,3,1,0.,24.0,0.,24.0
1979-07-21 11:50:19.600 ,3,0,0.,24.0,0.,24.0
1979-07-21 11:50:43.600 ,4,1,0.,24.0,0.,24.0
1979-07-21 11:51:07.600 ,4,0,0.,24.0,0.,24.0
1979-07-21 11:51:31.600 ,5,1,0.,24.0,0.,24.0
1979-07-21 11:51:55.600 ,5,0,0.,24.0,0.,24.0
1979-07-21 11:52:19.600 ,6,1,0.,24.0,0.,24.0
1979-07-21 11:52:43.600 ,6,0,0.,24.0,0.,24.0
1979-07-21 11:53:07.600 ,7,1,0.,24.0,0.,24.0
1979-07-21 11:53:31.600 ,7,0,0.,24.0,0.,24.0
1979-07-21 11:53:55.600 ,7,1,0.,24.0,0.,24.0
1979-07-21 11:54:19.600 ,7,0,0.,24.0,0.,24.0
1979-07-21 11:54:43.600 ,6,1,0.,24.0,0.,24.0
1979-07-21 11:55:07.600 ,6,0,0.,24.0,0.,24.0
1979-07-21 11:55:31.600 ,5,1,0.,24.0,0.,24.0
1979-07-21 11:55:55.600 ,5,0,0.,24.0,0.,24.0
1979-07-21 11:56:19.600 ,4,1,0.,24.0,0.,24.0
1979-07-21 11:56:43.600 ,4,0,0.,24.0,0.,24.0
1979-07-21 11:57:07.600 ,3,1,0.,24.0,0.,24.0
1979-07-21 11:57:31.600 ,3,0,0.,24.0,0.,24.0
1979-07-21 11:57:55.600 ,2,1,0.,24.0,0.,24.0
1979-07-21 11:58:19.600 ,2,0,0.,24.0,0.,24.0
1979-07-21 11:58:43.600 ,1,1,0.,24.0,0.,24.0
1979-07-21 11:59:07.600 ,1,0,0.,24.0,0.,24.0
1979-07-21 11:59:31.600 ,0,1,0.,24.0,0.,24.0
1979-07-21 11:59:55.600 ,0,0,0.,24.0,0.,24.0
1979-07-21 12:00:19.600 ,0,1,0.,24.0,0.,24.0
